Location: Unspecified
(0.0000°N, 0.0000°E)
Time: 18:45:32
(UTC+01:00)

Cosmos 1340 - Visible Passes

Search period start: 21 November 2014 00:00
Search period end: 01 December 2014 00:00
Orbit: 520 x 526 km, 81.2° (Epoch: 21 November)

Date Brightness Start Highest point End Pass type
(mag) Time Alt. Az. Time Alt. Az. Time Alt. Az.
21 Nov 4.4 06:20:12 10° SSE 06:23:51 40° E 06:27:28 10° NNE visible
22 Nov 4.7 06:07:39 10° SSE 06:11:11 34° E 06:14:41 10° NNE visible
23 Nov 4.9 05:55:05 10° SSE 05:58:29 29° E 06:01:51 10° NNE visible
24 Nov 5.2 05:42:33 10° SSE 05:45:47 25° E 05:48:59 10° NE visible
25 Nov 5.4 05:30:02 10° SSE 05:33:03 22° E 05:36:03 10° NE visible
26 Nov 5.6 05:17:33 10° SE 05:20:19 19° E 05:23:04 10° NE visible
27 Nov 5.7 05:05:07 10° SE 05:07:34 16° E 05:10:01 10° NE visible
28 Nov 5.8 04:52:45 10° SE 04:54:48 14° E 04:56:51 10° ENE visible
29 Nov 5.9 04:40:31 10° ESE 04:42:01 12° E 04:43:32 10° ENE visible
29 Nov 4.2 06:15:04 10° SW 06:17:45 18° W 06:20:24 10° NW visible
30 Nov 6.1 04:28:52 10° E 04:29:14 10° E 04:29:36 10° E visible
30 Nov 4.0 06:02:01 10° SW 06:04:57 21° W 06:07:53 10° NW visible
